Weather History for KRSW - August, 2012

Change the Weather History Date:

Tuesday, August 21, 2012

  Actual Average (KFMY) Record (KFMY)
Temperature  
Mean Temperature 83 °F 83 °F  
Max Temperature 93 °F 92 °F 97 °F (2014)
Min Temperature 73 °F 75 °F 70 °F (1947)
Degree Days  
Heating Degree Days 0 0  
Month to date heating degree days 0  
Since 1 June heating degree days 0  
Since 1 July heating degree days 0  
Cooling Degree Days 18 18  
Month to date cooling degree days 378  
Year to date cooling degree days 2533  
Since 1 June cooling degree days 1467  
Growing Degree Days 33 (Base 50)    
Moisture  
Dew Point 72 °F    
Average Humidity 76    
Maximum Humidity 94    
Minimum Humidity 44    
Precipitation  
Precipitation 0.59 in 0.33 in 3.95 in (1981)
Month to date precipitation 6.77  
Year to date precipitation 37.70  
Sea Level Pressure  
Sea Level Pressure 30.04 in    
Wind  
Wind Speed 8 mph (South)    
Max Wind Speed 21 mph    
Max Gust Speed 33 mph    
Visibility 9 miles    
Events Rain , Thunderstorm    
T = Trace of Precipitation, MM = Missing Value Source: NWS Daily Summary

Daily Weather History Graph

Daily Weather History Graph

Search for Another Location

Airport or City:

Trip Planner

Search our weather history database for the weather conditions in past years. The results will help you decide how hot, cold, wet, or windy it might be!

Date:

Astronomy

Aug. 21, 2012 Rise Set
Actual Time 7:02 AM EDT 7:57 PM EDT
Civil Twilight 6:38 AM EDT 8:21 PM EDT
Nautical Twilight 6:09 AM EDT 8:49 PM EDT
Astronomical Twilight 5:40 AM EDT 9:18 PM EDT
Moon 10:57 AM EDT (8/21) 10:32 PM EDT (8/21)
Length of Visible Light 13h 43m
Length of Day
12h 55m
Waxing Crescent, 19% of the Moon is Illuminated
Aug 21
Waxing Crescent
Aug 24
First Quarter
Aug 31
Full
Sep 8
Last Quarter
Sep 15
New

Hourly Weather History & Observations

Time (EDT) Temp. Heat Index Dew Point Humidity Pressure Visibility Wind Dir Wind Speed Gust Speed Precip Events Conditions
12:53 AM 80.1 °F 84.5 °F 73.9 °F 81% 30.02 in 10.0 mi North - - N/A   Clear
1:53 AM 79.0 °F - 73.9 °F 84% 30.01 in 10.0 mi Calm Calm - N/A   Clear
2:53 AM 78.1 °F - 73.9 °F 87% 30.00 in 10.0 mi SE 5.8 mph - N/A   Clear
3:53 AM 78.1 °F - 73.9 °F 87% 29.97 in 10.0 mi SE 4.6 mph - N/A   Clear
4:53 AM 77.0 °F - 73.9 °F 90% 29.99 in 9.0 mi SSE 4.6 mph - N/A   Clear
5:53 AM 78.1 °F - 73.9 °F 87% 30.01 in 10.0 mi South 5.8 mph - N/A   Clear
6:53 AM 79.0 °F - 73.9 °F 84% 30.03 in 10.0 mi SSE 6.9 mph - N/A   Clear
7:36 AM 77.0 °F - 69.8 °F 78% 30.06 in 5.0 mi South 20.7 mph 33.4 mph 0.01 in Rain , Thunderstorm Thunderstorms and Rain
7:53 AM 75.9 °F - 69.1 °F 79% 30.04 in 10.0 mi South 12.7 mph - 0.01 in   Mostly Cloudy
8:04 AM 75.2 °F - 69.8 °F 83% 30.04 in 10.0 mi South 5.8 mph - N/A   Mostly Cloudy
8:53 AM 77.0 °F - 69.1 °F 76% 30.01 in 10.0 mi WSW 3.5 mph - N/A   Partly Cloudy
9:53 AM 81.0 °F 84.4 °F 70.0 °F 69% 30.03 in 10.0 mi SSW 4.6 mph - N/A   Clear
10:53 AM 82.0 °F 87.4 °F 73.0 °F 74% 30.03 in 10.0 mi SSE 8.1 mph - N/A   Clear
11:53 AM 86.0 °F 93.0 °F 73.0 °F 65% 30.02 in 10.0 mi South 6.9 mph - N/A   Clear
12:53 PM 90.0 °F 96.9 °F 72.0 °F 55% 30.00 in 10.0 mi South 12.7 mph - N/A   Clear
1:53 PM 90.0 °F 96.9 °F 72.0 °F 55% 30.00 in 10.0 mi SSW 10.4 mph - N/A   Mostly Cloudy
2:53 PM 93.0 °F 97.4 °F 68.0 °F 44% 29.99 in 10.0 mi SW 16.1 mph 21.9 mph N/A   Clear
3:53 PM 91.0 °F 96.6 °F 70.0 °F 50% 30.00 in 10.0 mi SW 18.4 mph - N/A   Partly Cloudy
4:53 PM 91.0 °F 97.6 °F 71.1 °F 52% 30.00 in 10.0 mi WSW 19.6 mph - N/A   Clear
5:53 PM 89.1 °F 97.0 °F 73.0 °F 59% 30.01 in 10.0 mi WSW 17.3 mph - N/A   Partly Cloudy
6:53 PM 86.0 °F 93.8 °F 73.9 °F 67% 30.02 in 10.0 mi SW 13.8 mph - N/A   Clear
7:53 PM 86.0 °F 95.1 °F 75.0 °F 70% 30.03 in 10.0 mi SSW 8.1 mph - N/A   Partly Cloudy
8:53 PM 82.0 °F 86.3 °F 71.1 °F 69% 30.05 in 10.0 mi South 10.4 mph 26.5 mph 0.00 in Rain , Thunderstorm Light Thunderstorms and Rain
9:26 PM 78.8 °F - 68.0 °F 69% 30.07 in 10.0 mi North 10.4 mph - 0.00 in   Mostly Cloudy
9:53 PM 75.9 °F - 69.1 °F 79% 30.07 in 10.0 mi NE 6.9 mph - 0.00 in   Scattered Clouds
10:41 PM 75.2 °F - 69.8 °F 83% 30.09 in 10.0 mi North 12.7 mph 17.3 mph 0.00 in   Overcast
10:53 PM 75.0 °F - 70.0 °F 84% 30.09 in 4.0 mi NNE 11.5 mph - 0.07 in Rain Heavy Rain
11:14 PM 73.4 °F - 71.6 °F 94% 30.10 in 10.0 mi North 9.2 mph - 0.05 in Rain Light Rain
11:29 PM 73.4 °F - 71.6 °F 94% 30.13 in 2.0 mi NW 9.2 mph - 0.18 in Rain Light Rain
11:33 PM 73.4 °F - 71.6 °F 94% 30.12 in 0.8 mi North 8.1 mph - 0.43 in Rain Heavy Rain
11:43 PM 73.4 °F - 71.6 °F 94% 30.12 in 2.0 mi NNE 6.9 mph 18.4 mph 0.50 in Rain Light Rain
11:49 PM 73.4 °F - 71.6 °F 94% 30.12 in 7.0 mi NNE 5.8 mph - 0.50 in Rain , Thunderstorm Light Thunderstorms and Rain
11:50 PM 73.9 °F - 71.1 °F 91% 30.12 in 7.0 mi NNE 4.6 mph - 0.51 in Rain , Thunderstorm Light Thunderstorms and Rain